Regional Weather Roundup
Issued by NWS Upton, NY

Current Version | Previous Version | Text Only | Print | Product List | Glossary On
Versions: 1 2 3 4 5 6 7 8 9 10 11 12 13 14 15 16 17 18 19 20 21 22 23 24 25 26 27 28 29 30 31 32 33 34 35 36 37 38 39 40 41 42 43 44 45 46 47 48 49 50
000
ASUS41 KOKX 192314
RWROKX

Regional Weather Roundup
National Weather Service New York NY
600 PM EST WED JAN 19 2022

Note: "FAIR" indicates few or no clouds below 12,000 feet with no
significant weather and/or obstructions to visibility.

NYZ071-072-176-178-NJZ106-104-200000-
New York City Metro Area

CITY           SKY/WX    TMP DP  RH WIND       PRES   REMARKS
Central Park   PTCLDY    48  25  40 SW9       29.97R
World Trd Ctr  NOT AVBL
Bronx Lehman C   N/A     34  14  44 NW13        N/A  WCI  25
LaGuardia Arpt PTCLDY    49  24  37 SW10      29.95R
Queens College   N/A     34  14  44 NW9         N/A  WCI  26
Kennedy Intl   MOCLDY    42  36  79 S14       29.97R
Breezy Point     N/A     43 N/A N/A S9          N/A
Brooklyn Coll    N/A     36  14  41 W16G29      N/A  WCI  26
Staten Island    N/A     34  14  44 NW10G22     N/A  WCI  26
Newark/Liberty MOCLDY    45  27  49 S10       29.95R
Teterboro      PTCLDY    43  26  51 S7        29.94R
$$

NYZ177-179-078>081-200000-
Long Island New York

CITY           SKY/WX    TMP DP  RH WIND       PRES   REMARKS
Jones Beach      N/A     45 N/A N/A S12G17      N/A
Wantagh          N/A     34  12  40 NW14        N/A  WCI  24
Hempstead      NOT AVBL
Matinecock Pt    N/A     45 N/A N/A S9          N/A
Farmingdale    PTCLDY    44  36  73 SW12      29.96R
MacArthur/ISP  PTCLDY    43  36  76 SW14G23   29.95S
Stony Brook      N/A     32  16  51 NW10        N/A  WCI  24
Shirley        CLEAR     44  35  70 S15G22    29.97R
Mt Sinai Harb    N/A     43 N/A N/A SW7G13      N/A
Westhampton    CLEAR     44  35  70 SW10G18   29.98S
East Hampton   FAIR      43  36  77 SW12G22   29.96F
Southold         N/A     34  14  44 NW15G26     N/A  WCI  24
Montauk          N/A     45  36  70 SW12G23   29.97S
$$

NYZ052-065-067-200000-
Hudson Valley

CITY           SKY/WX    TMP DP  RH WIND       PRES   REMARKS
White Plains   PTCLDY    44  23  43 CALM      29.93R
Larchmont Harb   N/A     43 N/A N/A S12         N/A
Croton On Huds   N/A     43 N/A N/A SE6         N/A
Somers           N/A     30  12  47 NW10G25     N/A  WCI  21
Brewster         N/A     30   9  40 NW13G25     N/A  WCI  20
Newburgh       MOCLDY    41  27  56 W9        29.91R
Montgomery     PTCLDY    40  25  55 SW3       29.90R
Otisville        N/A     28  12  50 W7          N/A  WCI  21
Warwick          N/A     30  14  51 NW8         N/A  WCI  23
Suffern          N/A     30  12  47 NW14        N/A  WCI  20
Poughkeepsie   PTCLDY    36  26  67 CALM      29.91R
Albany         CLOUDY    38  25  59 S6        29.88R WCI  33
$$

NJZ001-105-106-008-010-013-015-019>022-104-200000-
New Jersey

CITY           SKY/WX    TMP DP  RH WIND       PRES   REMARKS
Newark/Liberty MOCLDY    45  27  49 S10       29.95R
Teterboro      PTCLDY    43  26  51 S7        29.94R
Caldwell       PTCLDY    48  24  39 SW5       29.95R
Somerville     PTCLDY    44  26  49 S6        29.94R
Linden         FAIR      46  25  43 CALM      29.97R
Perth Amboy      N/A     46 N/A N/A SW8         N/A
Sussex         MOCLDY    40  27  59 VRB3      29.92R
Andover          N/A     37  27  67 CALM      29.93R
Trenton        PTCLDY    44  27  51 SW9       29.97R
Millville      PTCLDY    46  29  51 VRB3      30.02R
Atlantic City  PTCLDY    43  34  70 S7        30.02R
Wrightstown    PTCLDY    44  27  50 SW7       29.98R
Toms River     PTCLDY    44  27  51 S6        30.00
Belmar         PTCLDY    47  26  44 S8        29.99R
$$

PAZ047>061-062-071-200000-
Eastern Pennsylvania

CITY           SKY/WX    TMP DP  RH WIND       PRES   REMARKS
Philadelphia   MOCLDY    48  27  44 S8        29.99R
Allentown      MOCLDY    39  26  59 W5        29.95R
Scranton       MOCLDY    43  25  49 SW8G17    29.90R
$$

CTZ002-004>006-009-010-012-RIZ004-006-007-MAZ004-011-015-200000-
Southern New England

 In CT

CITY           SKY/WX    TMP DP  RH WIND       PRES   REMARKS
Bradley Intl   MOCLDY    41  29  62 S9        29.90S
Hartford       PTCLDY    41  30  65 S6        29.92R
Danbury        PTCLDY    46  24  42 SW8       29.93R
Wtrbury/Oxford PTCLDY    41  24  51 SW6       29.92R
Norwalk Harbor   N/A     41 N/A N/A S8          N/A
Bridgeport     PTCLDY    42  34  73 S13       29.94R
Meriden        PTCLDY    41  31  67 S6        29.94R
New Haven      PTCLDY    43  35  73 S9        29.94R
Chester        FAIR      41  34  75 S12       29.93R
Groton         CLEAR     42  34  73 SW14G23   29.96R
Willimantic    CLEAR     40  29  64 S5        29.93R

 In RI

CITY           SKY/WX    TMP DP  RH WIND       PRES   REMARKS
Providence     PTCLDY    43  33  68 SW13      29.95R
Block Island   CLEAR     44  37  76 SW18G26   29.96F
Westerly       CLEAR     44  34  67 SW10      29.96S

In MA

CITY           SKY/WX    TMP DP  RH WIND       PRES   REMARKS
Boston         MOCLDY    43  30  60 SW17G23   29.91R
Worcester      CLEAR     38  27  64 SW14      29.87R WCI  30
Westfield      PTCLDY    39  25  57 S8        29.89R WCI  33
Provincetown   CLEAR     44  38  79 SW21      29.94R
Nantucket      CLEAR     45  41  86 SW14      30.01S
$$

ANZ330-335-338-340-345-350-353-355-200000-
Coastal Marine Observations


STATION/POSITION TIME  SKY/WX   TEMP    WIND        PRES    VSBY  WAVE
                                AIR SEA DIR/SP/G                  HT/PER
                 (UTC)          (F)     (DEG/KT/KT) (MB)    (MI)  (FT/S)
NY Harb Entrance 2250               46  200/ 19/ 25 1014.2          6/ 7
20 S Fire Island 2250               46              1014.8          9/ 8
Great South Bay  NOT AVBL
23 SSW Montauk P 2250            48     220/ 25/ 31 1015.3         12/ 8
15 E Barnegat Li 2256               45                N/A           7/ 7
Hudson Canyon    2250            51 52  220/ 25/ 33 1017.5          9/ 8
Kings Point      2230            44     210/ 12/ 13 1015.0
Execution Rocks  2245            43     190/  8       N/A
Western LI Sound 2230            44     210/ 10/ 14   N/A
Central LI Sound 2200            44 40  190/ 16/ 19   N/A           3/ 4
Robbins Reef     2230            49     220/ 14/ 17 1014.0
$$


>>>>>>>>>>>>>>>>>>>>>>>>>>>> KEY <<<<<<<<<<<<<<<<<<<<<<<<<<<
>                                                          <
>     SKY/WX - Sky Condition/Present Weather               <
>     TMP    - Temperature in Fahrenheit                   <
>     DP     - Dew Point in Fahrenheit                     <
>     RH     - Relative Humidity in Percent                <
>     WIND   - Direction (from) and Speed in MPH           <
>     PRES   - Mean Sea Level Pressure (inches of Hg)      <
>     WCI    - Wind Chill Index                            <
>     VSB    - Visibility in Miles                         <
>     HX     - Heat Index                                  <
>     TC     - Temperature in Celsius                      <
>     VRB    - Variable Wind Direction                     <
>                                                          <
>>>>>>>>>>>>>>>>>>>>>>>>>>>> KEY <<<<<<<<<<<<<<<<<<<<<<<<<<<



USA.gov is the U.S. government's official web portal to all federal, state and local government web resources and services.